Terminal Aerodrome Forecast
Issued by NWS

Home | Current Version | Previous Version | Text Only | Print | Product List | Glossary On
Versions: 1 2 3 4 5 6 7 8 9 10 11 12 13 14 15 16 17 18 19 20 21 22 23 24
000
FTUS46 KSEW 172300 RRA
TAFSEA
TAF
KSEA 172344Z 1800/1906 20013G22KT P6SM -RA FEW009 SCT020 OVC040
      TEMPO 1800/1801 5SM -RA BR FEW009 OVC020
     FM180100 22015G25KT 5SM SHRA FEW009 BKN020 OVC040
     FM180200 22013G22KT P6SM VCSH BKN035 BKN050
     FM180900 19011KT P6SM SCT028 SCT050
     FM181800 23008KT P6SM SCT050
     FM190000 32005KT P6SM SCT250=

USA.gov is the U.S. government's official web portal to all federal, state and local government web resources and services.